Track YAOGAN 21 now! 10-day predictions YAOGAN 21 is classified as:
1 40143U 14053A 23089.96500176 .00018987 00000-0 80096-3 0 9990 2 40143 97.3106 155.8787 0011908 311.3259 173.9134 15.23276010476174